This is the latest recevied weather packets stored in our database for station/object K4GSL. If no packets are shown the sender has not sent any weather packets the latest 10 day(s).
| Time | Temp. | Humidity | Pressure | Rain* | Wind** | Luminosity | Snow |
|---|---|---|---|---|---|---|---|
| 1777776274 | 15° C | 97% | 1015.8 hPa | 0 mm | - | 18 W/m² | - |
| 1777775971 | 15° C | 97% | 1015.6 hPa | 0 mm | - | 19 W/m² | - |
| 1777775668 | 15° C | 97% | 1015.9 hPa | 0 mm | - | 17 W/m² | - |
| 1777775365 | 15° C | 96% | 1015.7 hPa | 0 mm | - | 17 W/m² | - |
| 1777775060 | 15° C | 96% | 1015.6 hPa | 0 mm | - | 17 W/m² | - |
| 1777774756 | 15° C | 96% | 1015.9 hPa | 0 mm | - | 17 W/m² | - |
| 1777774452 | 15° C | 96% | 1016 hPa | 0 mm | - | 17 W/m² | - |
| 1777774150 | 15° C | 95% | 1015.9 hPa | 0 mm | - | 17 W/m² | - |
| 1777773848 | 15.56° C | 95% | 1016.1 hPa | 0 mm | - | 16 W/m² | - |
| 1777773543 | 15.56° C | 95% | 1016 hPa | 0 mm | - | 15 W/m² | - |
| 1777773241 | 15.56° C | 93% | 1015.4 hPa | 0 mm | - | 14 W/m² | - |
| 1777772936 | 15.56° C | 92% | 1015.4 hPa | 0 mm | - | 10 W/m² | - |
| 1777772634 | 15.56° C | 92% | 1015.4 hPa | 0 mm | - | 10 W/m² | - |
| 1777772332 | 16.11° C | 88% | 1014.8 hPa | 0 mm | - | 7 W/m² | - |
| 1777772028 | 15.56° C | 92% | 1015.4 hPa | 0 mm | - | 5 W/m² | - |
| 1777771725 | 15° C | 96% | 1015.6 hPa | 0 mm | - | 3 W/m² | - |
| 1777771423 | 15° C | 98% | 1015.8 hPa | 0 mm | - | 3 W/m² | - |
| 1777771120 | 15° C | 98% | 1015.8 hPa | 0 mm | - | 3 W/m² | - |
| 1777770817 | 15° C | 99% | 1016 hPa | 0 mm | - | 3 W/m² | - |
| 1777770513 | 15° C | 98% | 1016.4 hPa | 0 mm | - | 3 W/m² | - |
| 1777770211 | 15° C | 98% | 1016.6 hPa | 0 mm | - | 3 W/m² | - |
| 1777769907 | 15° C | 98% | 1016.9 hPa | 0 mm | - | 4 W/m² | - |
| 1777769605 | 15° C | 98% | 1016.5 hPa | 0 mm | - | 4 W/m² | - |
| 1777769301 | 15° C | 98% | 1016.8 hPa | 0 mm | - | 6 W/m² | - |
| 1777768999 | 15° C | 98% | 1016.8 hPa | 0 mm | - | 8 W/m² | - |
* Rain latest hour (hover to see other rain measurements)
** Current wind speed in m/s (hover to see current wind gust speed)